This demonstration page uses our WeatherBlox Daily Observations layout. Learn more.

Left ArrowRight Arrow

Hourly Observations for December 17, 2016

Temp ( °F °C ) Dew Point ( °F °C ) Humidity (%) Winds ( mph kmh ) Pressure ( in mb ) Visibility ( mi km ) Precip ( " mm )
12:53 am 00:53 Clear -26 -32.2 -31 -35 76 76 WSW 8 13 30.37 1029 10 16 0.00 0.00
1:53 am 01:53 Clear -27 -32.8 -31 -35 81 81 WSW 6 9 30.36 1028 10 16 0.00 0.00
2:53 am 02:53 Clear -27 -32.8 -31 -35 81 81 W 7 11 30.36 1028 10 16 0.00 0.00
3:21 am 03:21 Mostly Clear -24 -31.1 -28 -33.3 81 81 WSW 8 13 30.56 1035 8 13 0.00 0.00
3:53 am 03:53 Mostly Cloudy with Haze -25 -31.7 -31 -35 72 72 W 5 7 30.36 1028 4 6 0.00 0.00
4:20 am 04:20 Hazy -20 -29 -27 -33 68 68 SW 15 24 30.53 1034 6 10 0.00 0.00
4:53 am 04:53 Clear -20 -28.9 -25 -31.7 77 77 SW 18 30 30.32 1027 8 13 0.00 0.00
5:53 am 05:53 Clear -21 -29.4 -26 -32.2 77 77 SW 21 33 30.32 1027 9 14 0.00 0.00
6:53 am 06:53 Clear -21 -29.4 -27 -32.8 72 72 SW 20 31 30.32 1027 9 14 0.00 0.00
7:53 am 07:53 Clear -20 -28.9 -26 -32.2 73 73 SW 15 24 30.29 1026 10 16 0.00 0.00
8:53 am 08:53 Sunny -17 -27.2 -23 -30.6 73 73 W 7 11 30.30 1026 10 16 0.00 0.00
9:53 am 09:53 Sunny -14 -25.6 -20 -28.9 74 74 WNW 5 7 30.31 1026 10 16 0.00 0.00
10:53 am 10:53 Sunny -5 -20.6 -13 -25 68 68 WSW 17 28 30.28 1025 10 16 0.00 0.00
11:53 am 11:53 Sunny 0 -17.8 -10 -23.3 62 62 WSW 20 31 30.24 1024 10 16 0.00 0.00
12:53 pm 12:53 Sunny 1 -17.2 -9 -22.8 62 62 SW 18 30 30.23 1024 10 16 0.00 0.00
1:53 pm 13:53 Sunny 1 -17.2 -8 -22.2 65 65 WSW 18 30 30.22 1023 10 16 0.00 0.00
2:53 pm 14:53 Sunny 2 -16.7 -7 -21.7 65 65 WSW 14 22 30.22 1023 10 16 0.00 0.00
3:53 pm 15:53 Sunny 0 -17.8 -9 -22.8 65 65 WSW 10 17 30.22 1024 10 16 0.00 0.00
4:53 pm 16:53 Clear -4 -20 -11 -23.9 71 71 SW 13 20 30.22 1023 10 16 0.00 0.00
5:53 pm 17:53 Clear -5 -20.6 -11 -23.9 75 75 SW 15 24 30.22 1023 10 16 0.00 0.00
6:53 pm 18:53 Clear -3 -19.4 -9 -22.8 75 75 SW 20 31 30.22 1023 10 16 0.00 0.00
7:53 pm 19:53 Mostly Clear -3 -19.4 -9 -22.8 75 75 SW 21 33 30.21 1023 10 16 0.00 0.00
8:53 pm 20:53 Mostly Cloudy 4 -15.6 -4 -20 69 69 SW 23 37 30.20 1023 10 16 0.00 0.00
9:53 pm 21:53 Cloudy 7 -13.9 -1 -18.3 70 70 SW 22 35 30.19 1023 10 16 0.00 0.00
10:53 pm 22:53 Cloudy 8 -13.3 0 -17.8 69 69 SW 24 39 30.18 1022 10 16 0.00 0.00
11:53 pm 23:53 Cloudy 8 -13.3 0 -17.8 69 69 SW 24 39 30.19 1022 10 16 0.00 0.00

Powered by AerisWeather